This is the latest recevied weather packets stored in our database for station/object XE2OR-10. If no packets are shown the sender has not sent any weather packets the latest 10 day(s).
| Time | Temp. | Humidity | Pressure | Rain* | Wind** | Luminosity | Snow |
|---|---|---|---|---|---|---|---|
| 1778117032 | 29.44° C | 75% | 1014.3 hPa | 0 mm | - | 1 W/m² | - |
| 1778116729 | 30° C | 74% | 1014.4 hPa | 0 mm | - | 2 W/m² | - |
| 1778116433 | 30° C | 74% | 1014.2 hPa | 0 mm | - | 4 W/m² | - |
| 1778116129 | 30° C | 74% | 1013.8 hPa | 0 mm | - | 6 W/m² | - |
| 1778115829 | 30° C | 74% | 1013.9 hPa | 0 mm | - | 9 W/m² | - |
| 1778115529 | 30° C | 74% | 1013.8 hPa | 0 mm | - | 12 W/m² | - |
| 1778115232 | 30° C | 73% | 1013.9 hPa | 0 mm | - | 18 W/m² | - |
| 1778114929 | 30° C | 74% | 1013.9 hPa | 0 mm | - | 24 W/m² | - |
| 1778114632 | 30° C | 73% | 1013.7 hPa | 0 mm | - | 27 W/m² | - |
| 1778114329 | 30.56° C | 74% | 1013.9 hPa | 0 mm | - | 33 W/m² | - |
| 1778114029 | 30.56° C | 74% | 1013.9 hPa | 0 mm | - | 45 W/m² | - |
| 1778113729 | 30.56° C | 74% | 1013.6 hPa | 0 mm | - | 37 W/m² | - |
| 1778113432 | 30.56° C | 74% | 1013.3 hPa | 0 mm | - | 41 W/m² | - |
| 1778113129 | 30.56° C | 73% | 1013.5 hPa | 0 mm | - | 53 W/m² | - |
| 1778112833 | 31.11° C | 72% | 1013.3 hPa | 0 mm | - | 54 W/m² | - |
| 1778112529 | 31.11° C | 73% | 1013.1 hPa | 0 mm | - | 62 W/m² | - |
| 1778112229 | 31.11° C | 70% | 1013.1 hPa | 0 mm | - | 84 W/m² | - |
| 1778111929 | 31.67° C | 69% | 1013.3 hPa | 0 mm | - | 159 W/m² | - |
| 1778111632 | 31.67° C | 71% | 1013.3 hPa | 0 mm | - | 124 W/m² | - |
| 1778111329 | 32.22° C | 69% | 1013.4 hPa | 0 mm | - | 122 W/m² | - |
| 1778111032 | 32.22° C | 70% | 1013.2 hPa | 0 mm | - | 126 W/m² | - |
| 1778110729 | 32.22° C | 70% | 1013 hPa | 0 mm | - | 225 W/m² | - |
| 1778110429 | 32.22° C | 69% | 1012.9 hPa | 0 mm | - | 286 W/m² | - |
| 1778110129 | 32.78° C | 70% | 1012.8 hPa | 0 mm | - | 265 W/m² | - |
| 1778109833 | 32.22° C | 69% | 1012.9 hPa | 0 mm | - | 308 W/m² | - |
* Rain latest hour (hover to see other rain measurements)
** Current wind speed in m/s (hover to see current wind gust speed)